Home > Weather > Temuco > Past weeks

Flag for Chile Past Weather in Temuco, Chile — Yesterday and Last 2 Weeks

Now
52 °F

Passing clouds.


Feels Like: 49 °F
Forecast: N/A
Wind: 7 mph from West

Location: Concepcion Airport

Current Time: Aug 25, 2016 at 8:59:50 PM

Latest Report: Aug 25, 2016 at 8:00 PM


Visibility: N/A

Pressure: 30.12 "Hg

Humidity: 82%

Dew Point: 46 °F

Location of TemucoLocation

Past Weather in Temuco — Graph

°F

Temuco Temperature Yesterday

Maximum temperature yesterday: 55 °F (at 12:00 PM)
Minimum temperature yesterday: 52 °F (at 2:00 AM)
Average temperature yesterday: 53 °F

High & Low Weather Summary for the Past Weeks

 TemperatureHumidityPressure
High68 °F (Aug 21, 3:00 PM)100% (Aug 11, 8:00 AM)30.42 "Hg (Aug 11, 8:00 AM)
Low39 °F (Aug 21, 6:00 AM)24% (Aug 21, 2:00 PM)29.86 "Hg (Aug 16, 4:00 AM)
Average53 °F85%30.11 "Hg
* Reported Aug 10 7:00 PM — Aug 25 8:00 PM, Temuco, Weather by CustomWeather, © 2016

Note: Actual official high and low records may vary slightly from our data, if they occured in-between our weather recording intervals... More about our weather records

Advertising

Temuco Weather History for the Previous 24 Hours

Scroll right to see more
 ConditionsComfort  
Time TempWeatherWind HumidityBarometerVisibility
8:00 PM
Thu, Aug 25
52 °FPassing clouds.7 mph82%30.12 "HgN/A
7:00 PM54 °FBroken clouds.8 mph82%30.12 "HgN/A
6:00 PM55 °FPartly sunny.9 mph77%30.09 "HgN/A
5:00 PM54 °FPartly sunny.5 mph82%30.07 "HgN/A
4:00 PM52 °FDrizzle. Fog.9 mph94%30.07 "Hg2 mi
3:00 PM52 °FDrizzle. Cloudy.12 mph100%30.07 "Hg1 mi
2:00 PM55 °FLight rain. Cloudy.13 mph94%30.04 "Hg2 mi
1:00 PM55 °FDrizzle. Fog.12 mph94%30.07 "Hg2 mi
12:00 PM55 °FScattered showers. Cloudy.14 mph94%30.04 "Hg4 mi
11:00 AM55 °FScattered showers. Overcast.14 mph94%30.04 "Hg5 mi
10:00 AM55 °FMore clouds than sun.20 mph88%30.01 "HgN/A
9:00 AM55 °FBroken clouds.17 mph88%29.98 "HgN/A
8:00 AM55 °FPartly cloudy.17 mph88%30.01 "HgN/A
7:00 AM55 °FOvercast.16 mph88%29.98 "HgN/A
6:00 AM55 °FPassing clouds.16 mph88%29.98 "HgN/A
5:00 AM55 °FOvercast.16 mph88%29.98 "HgN/A
4:00 AM55 °FOvercast.15 mph88%30.01 "HgN/A
3:00 AM55 °FOvercast.14 mph88%30.01 "HgN/A
2:00 AM54 °FSprinkles. Partly cloudy.14 mph94%30.04 "Hg4 mi
1:00 AM54 °FRain showers. Passing clouds.13 mph94%30.04 "Hg2 mi
12:00 AM54 °FRain showers. Mostly cloudy.8 mph94%30.04 "Hg1 mi
11:00 PM
Wed, Aug 24
54 °FPartly cloudy.14 mph94%30.04 "HgN/A
10:00 PM54 °FOvercast.15 mph94%30.04 "HgN/A
9:00 PM54 °FSprinkles. Passing clouds.15 mph94%30.04 "HgN/A
8:00 PM54 °FMostly cloudy.16 mph88%30.04 "HgN/A
Weather by CustomWeather, © 2016

See weather overviewHow to use our weather pages